GW2646 Weather Reports


time (UTC)temp
F
wind
direction
speed
knots
gust
knots
rain 1hr
in
rain 24hr
in
rain mn
in
humidity
%
barometer
mb
20260504183548 72 177 3.5 8.7 0.00 0.00 0.00 52 1010.4
20260504183058 73 192 3.5 7.8 0.00 0.00 0.00 51 1010.5
20260504182550 73 148 2.6 7.8 0.00 0.00 0.00 55 1010.5
20260504182048 72 165 3.5 7.0 0.00 0.00 0.00 55 1010.5
20260504181552 72 213 1.7 7.0 0.00 0.00 0.00 57 1010.4
20260504181048 72 165 1.7 7.0 0.00 0.00 0.00 54 1010.4
20260504180549 72 168 2.6 7.0 0.00 0.00 0.00 57 1010.4
20260504180051 71 202 2.6 7.0 0.00 0.00 0.00 57 1010.4
20260504175551 70 0 2.6 7.0 0.00 0.00 0.00 60 1010.5
20260504175048 71 207 0.9 7.8 0.00 0.00 0.00 59 1010.4
20260504174550 69 238 3.5 7.8 0.00 0.00 0.00 61 1010.5
20260504174048 69 229 2.6 7.0 0.00 0.00 0.00 61 1010.4
20260504173549 69 229 2.6 6.1 0.00 0.00 0.00 61 1010.4
20260504173053 69 261 0.9 6.1 0.00 0.00 0.00 62 1010.3
20260504172547 68 0 1.7 6.1 0.00 0.00 0.00 63 1010.3
20260504172047 68 188 1.7 6.1 0.00 0.00 0.00 63 1010.3
20260504171552 68 290 0.0 2.6 0.00 0.00 0.00 63 1010.3
20260504171048 68 300 0.0 2.6 0.00 0.00 0.00 63 1010.4
20260504170547 67 300 0.0 4.3 0.00 0.00 0.00 64 1010.4
20260504151048 58 0 0.0 1.7 0.00 0.00 0.00 80 1010.3
20260504150550 57 323 0.0 1.7 0.00 0.00 0.00 82 1010.4
20260504141047 52 0 0.0 0.0 0.00 0.00 0.00 92 1009.7
20260504140547 51 0 0.0 0.9 0.00 0.00 0.00 93 1009.8
20260504130547 50 0 0.0 0.0 0.00 0.00 0.00 92 1009.4
20260504110546 51 0 0.0 0.0 0.00 0.00 0.00 89 1009.4
20260504100545 52 0 0.0 0.0 0.00 0.00 0.00 87 1009.5
20260504081555 53 0 0.0 0.0 0.00 0.00 0.00 82 1009.3
20260504081047 53 0 0.0 0.0 0.00 0.00 0.00 82 1009.3
20260504080547 53 0 0.0 0.9 0.00 0.00 0.00 82 1009.3
20260504050548 61 0 0.0 0.0 0.00 0.00 0.00 64 1009.4
20260504045547 63 0 0.0 0.0 0.00 0.00 0.00 58 1009.5
20260504045048 63 0 0.0 0.0 0.00 0.00 0.00 58 1009.4
20260504044557 63 0 0.0 0.0 0.00 0.00 0.00 57 1009.5
20260504044048 64 0 0.0 0.9 0.00 0.00 0.00 56 1009.5
20260504043550 64 0 0.0 0.9 0.00 0.00 0.00 57 1009.5
20260504043057 65 0 0.0 0.0 0.00 0.00 0.00 56 1009.4
20260504042552 65 0 0.0 0.0 0.00 0.00 0.00 54 1009.4
20260504042048 66 0 0.0 0.9 0.00 0.00 0.00 52 1009.5
20260504041551 67 0 0.0 0.9 0.00 0.00 0.00 51 1009.4
20260504041048 67 0 0.0 0.9 0.00 0.00 0.00 50 1009.4
20260504040550 67 0 0.0 0.9 0.00 0.00 0.00 50 1009.4
20260504040055 68 0 0.0 0.9 0.00 0.00 0.00 49 1009.4
20260504035547 68 0 0.0 1.7 0.00 0.00 0.00 48 1009.3
20260504035048 68 0 0.0 1.7 0.00 0.00 0.00 47 1009.3
20260504034611 69 0 0.0 2.6 0.00 0.00 0.00 47 1009.2
20260504034047 69 0 0.0 2.6 0.00 0.00 0.00 46 1009.2
20260504033548 69 323 0.0 2.6 0.00 0.00 0.00 46 1009.2
20260504033051 70 0 0.0 0.9 0.00 0.00 0.00 45 1009.2
20260504032547 70 0 0.0 2.6 0.00 0.00 0.00 45 1009.1
20260504032050 71 0 0.0 2.6 0.00 0.00 0.00 45 1009.1
20260504031552 72 0 0.0 0.9 0.00 0.00 0.00 43 1009.0
20260504031048 72 0 0.0 0.9 0.00 0.00 0.00 42 1009.0
20260504030545 72 0 0.0 2.6 0.00 0.00 0.00 41 1009.0
20260504030051 72 0 0.0 3.5 0.00 0.00 0.00 39 1009.2
20260504025545 73 0 0.9 4.3 0.00 0.00 0.00 38 1009.3
20260504025045 73 311 0.0 5.2 0.00 0.00 0.00 38 1009.3
20260504024558 73 304 1.7 6.1 0.00 0.00 0.00 37 1009.3
20260504024046 74 295 1.7 6.1 0.00 0.00 0.00 37 1009.3
20260504023544 74 330 1.7 6.1 0.00 0.00 0.00 38 1009.3
20260504023057 75 304 0.9 6.1 0.00 0.00 0.00 38 1009.3
20260504022549 75 0 0.9 6.1 0.00 0.00 0.00 39 1009.3
20260504022045 75 292 1.7 6.1 0.00 0.00 0.00 39 1009.3
20260504021554 76 337 0.9 6.1 0.00 0.00 0.00 39 1009.3
20260504021047 76 325 0.9 6.1 0.00 0.00 0.00 40 1009.3
20260504020545 76 292 0.9 6.1 0.00 0.00 0.00 39 1009.3
20260504020048 76 266 0.9 7.8 0.00 0.00 0.00 38 1009.3
20260504015545 76 325 1.7 7.8 0.00 0.00 0.00 37 1009.3
20260504015045 77 327 1.7 7.8 0.00 0.00 0.00 37 1009.4
20260504014606 77 0 0.9 7.0 0.00 0.00 0.00 39 1009.4
20260504014046 77 225 0.0 7.0 0.00 0.00 0.00 38 1009.4
20260504013548 78 247 0.9 6.1 0.00 0.00 0.00 37 1009.4
20260504013054 78 292 1.7 7.0 0.00 0.00 0.00 39 1009.4
20260504012547 78 310 1.7 7.0 0.00 0.00 0.00 39 1009.4
20260504012047 79 255 1.7 6.1 0.00 0.00 0.00 39 1009.4
20260504011558 79 243 0.9 6.1 0.00 0.00 0.00 39 1009.5
20260504011043 78 321 0.0 7.0 0.00 0.00 0.00 40 1009.5
20260504010546 78 326 0.9 7.0 0.00 0.00 0.00 39 1009.5
20260504005545 79 337 0.9 5.2 0.00 0.00 0.00 40 1009.6
20260504005044 78 0 1.7 8.7 0.00 0.00 0.00 41 1009.8
20260504004555 78 325 2.6 8.7 0.00 0.00 0.00 40 1009.9
20260504004047 78 291 3.5 8.7 0.00 0.00 0.00 39 1010.0
20260504003545 78 302 1.7 7.0 0.00 0.00 0.00 42 1010.0
20260504003100 78 325 2.6 7.8 0.00 0.00 0.00 42 1010.0
20260504002543 79 327 2.6 7.8 0.00 0.00 0.00 40 1010.0
20260504002044 78 316 0.9 7.8 0.00 0.00 0.00 43 1010.1
20260504001604 78 209 2.6 7.8 0.00 0.00 0.00 44 1010.2
20260504001047 79 327 2.6 6.1 0.00 0.00 0.00 42 1010.2
20260504000546 80 360 0.9 7.0 0.00 0.00 0.00 43 1010.3
20260504000052 79 0 0.9 7.8 0.00 0.00 0.00 43 1010.2
20260503235547 78 322 1.7 7.8 0.00 0.00 0.00 42 1010.3
20260503235048 79 314 1.7 7.0 0.00 0.00 0.00 43 1010.3
20260503234556 79 315 0.9 5.2 0.00 0.00 0.00 43 1010.3
20260503234049 79 310 0.9 7.8 0.00 0.00 0.00 44 1010.3
20260503233547 79 213 0.9 7.8 0.00 0.00 0.00 45 1010.4
20260503233050 79 0 1.7 7.8 0.00 0.00 0.00 44 1010.5
20260503232550 79 273 1.7 7.8 0.00 0.00 0.00 45 1010.5
20260503232051 79 274 1.7 7.8 0.00 0.00 0.00 43 1010.5
20260503231555 79 352 1.7 7.8 0.00 0.00 0.00 44 1010.6
20260503231048 79 222 2.6 7.8 0.00 0.00 0.00 44 1010.7
20260503230549 79 304 0.9 7.8 0.00 0.00 0.00 45 1010.7
20260503230058 79 209 2.6 7.0 0.00 0.00 0.00 45 1010.8
20260503225547 79 302 2.6 6.1 0.00 0.00 0.00 45 1010.9
20260503225048 79 315 0.9 6.1 0.00 0.00 0.00 46 1011.0
20260503224554 79 326 1.7 7.0 0.00 0.00 0.00 45 1011.1
20260503224048 79 290 1.7 7.0 0.00 0.00 0.00 45 1011.1
20260503223548 79 275 1.7 4.3 0.00 0.00 0.00 45 1011.1
20260503223053 79 0 0.9 4.3 0.00 0.00 0.00 45 1011.3
20260503222546 78 252 1.7 5.2 0.00 0.00 0.00 46 1011.4
20260503222047 78 298 1.7 7.8 0.00 0.00 0.00 45 1011.4
20260503221555 78 275 1.7 7.8 0.00 0.00 0.00 47 1011.4
20260503221050 78 261 1.7 7.0 0.00 0.00 0.00 46 1011.4
20260503220548 78 288 1.7 7.0 0.00 0.00 0.00 48 1011.4
20260503220054 77 317 1.7 7.8 0.00 0.00 0.00 47 1011.5
20260503215548 78 327 1.7 7.8 0.00 0.00 0.00 49 1011.5
20260503215051 77 228 2.6 7.0 0.00 0.00 0.00 49 1011.6
20260503214548 77 228 0.9 7.0 0.00 0.00 0.00 49 1011.6
20260503214047 78 306 0.9 8.7 0.00 0.00 0.00 47 1011.7
20260503213547 77 326 3.5 8.7 0.00 0.00 0.00 49 1011.8
20260503213107 77 260 1.7 8.7 0.00 0.00 0.00 51 1011.7
20260503212547 77 318 2.6 8.7 0.00 0.00 0.00 51 1011.8
20260503212049 77 300 2.6 7.8 0.00 0.00 0.00 50 1011.7
20260503211550 77 221 1.7 8.7 0.00 0.00 0.00 50 1011.8
20260503211048 76 263 2.6 8.7 0.00 0.00 0.00 49 1011.9
20260503210548 76 315 2.6 8.7 0.00 0.00 0.00 50 1011.9
20260503205548 77 273 0.9 0.9 0.00 0.00 0.00 51 1012.0